Regional Weather Roundup
Issued by NWS

Home | Current Version | Previous Version | Graphics & Text | Print | Product List | Glossary On
Versions: 1 2 3 4 5 6 7 8 9 10 11 12 13 14 15 16 17 18 19 20 21 22 23 24 25 26 27 28 29 30 31 32 33 34 35 36 37 38 39 40 41 42 43 44 45 46 47 48 49 50
000
ASUS45 KTFX 280910
RWRMT
MONTANA REGIONAL WEATHER ROUNDUP
NATIONAL WEATHER SERVICE GREAT FALLS MT
300 AM MDT THU MAY 28 2015

NOTE: "FAIR" INDICATES FEW OR NO CLOUDS BELOW 12000 FEET WITH NO
SIGNIFICANT WEATHER AND/OR OBSTRUCTIONS TO VISIBILITY.

MTZ001>007-043-281000-
WEST OF THE DIVIDE

CITY           SKY/WX    TMP DP  RH WIND       PRES   REMARKS
KALISPELL      PTSUNNY   49  48  97 CALM      30.03S
MISSOULA       CLOUDY    50  45  83 CALM      30.07R
BUTTE          CLOUDY    45  41  86 CALM      30.10S
MULLAN PASS    PTCLDY    45  41  86 NW6       30.11F
DEER LODGE       N/A     48  46  93 CALM      30.12S
EUREKA           N/A     48  48 100 CALM      30.05
HAMILTON         N/A     52  46  82 S5        30.07S
LIBBY            N/A     52  50  93 CALM      30.05S
PLAINS           N/A     50  46  85 CALM      30.05S
RONAN            N/A     50  47  89 CALM      30.08S
THOMPSON FALLS   N/A     45  44  96 CALM      30.09S VSB 0
$$

MTZ008-052>055-281000-
SOUTHWEST MONTANA

CITY           SKY/WX    TMP DP  RH WIND       PRES   REMARKS
BOZEMAN        CLOUDY    50  46  86 S6        30.06S
DILLON         CLOUDY    47  44  90 S5        30.08S
W YELLOWSTONE  MIX PCPN  39  39 100 SW3       30.12S
$$

MTZ009-010-012-014-046-048-049-054-281000-
EAST SLOPES AND CENTRAL MONTANA

CITY           SKY/WX    TMP DP  RH WIND       PRES   REMARKS
CUT BANK       PTCLDY    46  44  93 NW5       30.00S
GREAT FALLS    CLOUDY    51  48  89 SW8       29.99S
MALMSTROM AFB  MOCLDY    53  49  85 W6        30.00R
HELENA         CLOUDY    54  48  80 CALM      30.03S
CONRAD           N/A     51  50  97 CALM      30.01S
$$

MTZ011-013-016-021-045-047-050-051-281000-
NORTH CENTRAL MONTANA

CITY           SKY/WX    TMP DP  RH WIND       PRES   REMARKS
HAVRE          PTCLDY    48  46  93 W5        29.94S
LEWISTOWN      MOCLDY    48  44  86 S3        30.00S
N BAR RANCH    FAIR      46  45  93 W6        30.01F
CHINOOK          N/A     50  50 100 CALM      29.94R
FORT BENTON      N/A     52  48  87 S5        29.98R
$$

MTZ017>020-022>027-061-062-281000-
NORTHEAST MONTANA

CITY           SKY/WX    TMP DP  RH WIND       PRES   REMARKS
GLASGOW        CLEAR     53  51  93 E3        29.86S
JORDAN           N/A     50  50 100 W6        29.90F
SIDNEY         MOCLDY    52  48  87 CALM      29.88S
WOLF POINT     CLEAR     52  49  89 CALM      29.87S
MALTA            N/A     51  45  80 SW8       29.87S
PLENTYWOOD       N/A     54  54 100 E5        29.88F
POPLAR           N/A     48  48 100 NW3       29.89R
SCOBEY           N/A     52  46  79 E5        29.88F
$$

MTZ028>42-056>058-281000-
SOUTHCENTRAL AND SOUTHEAST MONTANA

CITY           SKY/WX    TMP DP  RH WIND       PRES   REMARKS
BAKER          MOCLDY    50  48  93 CALM      29.92S FOG
BILLINGS       PTCLDY    52  46  80 SW12      29.98S
LIVINGSTON     CLOUDY    51  45  79 W9        30.03S
MILES CITY     FOG       52  52 100 S3        29.92R VSB 1
BIG TIMBER       N/A     50  45  81 SW12      30.02F
EKALAKA          N/A     55  50  83 CALM      29.92F
LAUREL           N/A     48  39  71 W3        29.97S
ROUNDUP          N/A     51  45  80 SW2       29.89S
$$

REGIONAL REPORTS...DAKOTAS

CITY           SKY/WX    TMP DP  RH WIND       PRES   REMARKS
WILLISTON      MOCLDY    57  54  89 SE3       29.87F
MINOT          LGT RAIN  58  56  93 E7        29.89F
DICKINSON      FOG       48  47  96 SW3       29.88S VSB 1/4
BEACH          FAIR      46  46 100 S3        29.91S FOG
CROSBY         FAIR      55  55 100 E7        29.89F
WATFORD CITY   PTSUNNY   54  54 100 SE6       29.87S
BISMARCK       MOCLDY    58  56  93 S7        29.90S
GRAND FORKS    CLOUDY    59  53  80 W16       29.95S
FARGO          LGT RAIN  65  56  72 SW5       29.96R
BUFFALO SD       N/A     54  52  93 W5        29.86R
RAPID CITY     CLOUDY    55  52  89 S3        29.92F
$$

REGIONAL REPORTS...WYOMING/IDAHO/WASHINGTON

CITY           SKY/WX    TMP DP  RH WIND       PRES   REMARKS
GILLETTE       MOCLDY    48  46  93 W7        29.97R
SHERIDAN       PTCLDY    48  45  89 CALM      29.98S
BUFFALO WY     MOCLDY    49  45  86 NW7       30.01S
CODY           MOCLDY    48  43  81 SW3       30.03S
YELLOWSTONE LA   N/A     38  36  92 CALM      30.16S
IDAHO FALLS    CLOUDY    49  47  93 S5        30.10S
SALMON         CLOUDY    48  46  93 SE5       30.08S
BOISE          CLEAR     56  44  64 S9        30.03S
SPOKANE        PTCLDY    56  50  80 S6        30.02R
$$

REGIONAL REPORTS...ALBERTA

CITY           SKY/WX    TMP DP  RH WIND       PRES   REMARKS
EDMONTON       CLOUDY    48  41  76 N20G25    30.11R
CALGARY        MOCLDY    55  45  67 N17       30.06R
LETHBRIDGE     PTCLDY    46  45  93 W9        29.98S
MEDICINE HAT   CLEAR     50  48  93 CALM      29.94R
$$

REGIONAL REPORTS...SASKATCHEWAN

CITY           SKY/WX    TMP DP  RH WIND       PRES   REMARKS
SWIFT CURRENT  MOCLDY    50  46  87 VRB2      29.93R
REGINA         CLOUDY    55  48  76 E5        29.92F
SASKATOON      MOCLDY    55  39  54 S5        29.90F
$$


USA.gov is the U.S. government's official web portal to all federal, state and local government web resources and services.